This is the latest recevied weather packets stored in our database for station/object K0CVS. If no packets are shown the sender has not sent any weather packets the latest 10 day(s).
| Time | Temp. | Humidity | Pressure | Rain* | Wind** | Luminosity | Snow |
|---|---|---|---|---|---|---|---|
| 1778171162 | 16.11° C | 52% | 1015.9 hPa | 0 mm | - | 128 W/m² | - |
| 1778170859 | 15.56° C | 53% | 1016.1 hPa | 0 mm | - | 139 W/m² | - |
| 1778170555 | 16.11° C | 54% | 1016.1 hPa | 0 mm | - | 111 W/m² | - |
| 1778170252 | 16.11° C | 53% | 1016.2 hPa | 0 mm | - | 89 W/m² | - |
| 1778169948 | 16.11° C | 52% | 1016.2 hPa | 0 mm | - | 96 W/m² | - |
| 1778169644 | 16.11° C | 53% | 1016.1 hPa | 0 mm | - | 147 W/m² | - |
| 1778169340 | 16.11° C | 52% | 1016.2 hPa | 0 mm | - | 103 W/m² | - |
| 1778169037 | 16.11° C | 53% | 1016.2 hPa | 0 mm | - | 64 W/m² | - |
| 1778168734 | 15.56° C | 56% | 1016.3 hPa | 0 mm | - | 90 W/m² | - |
| 1778168431 | 15.56° C | 54% | 1016.4 hPa | 0 mm | - | 149 W/m² | - |
| 1778168128 | 15.56° C | 55% | 1016.2 hPa | 0 mm | - | 74 W/m² | - |
| 1778167824 | 15.56° C | 55% | 1016.4 hPa | 0 mm | - | 88 W/m² | - |
| 1778167520 | 15° C | 57% | 1016.2 hPa | 0 mm | - | 115 W/m² | - |
| 1778167217 | 15° C | 57% | 1016.5 hPa | 0 mm | - | 75 W/m² | - |
| 1778166913 | 14.44° C | 58% | 1016.5 hPa | 0 mm | - | 55 W/m² | - |
| 1778166610 | 14.44° C | 59% | 1016.5 hPa | 0 mm | - | 99 W/m² | - |
| 1778166307 | 14.44° C | 61% | 1016.7 hPa | 0 mm | - | 117 W/m² | - |
| 1778166003 | 14.44° C | 60% | 1016.9 hPa | 0 mm | - | 62 W/m² | - |
| 1778165699 | 13.89° C | 60% | 1016.7 hPa | 0 mm | - | 52 W/m² | - |
| 1778165396 | 13.89° C | 61% | 1016.9 hPa | 0 mm | - | 38 W/m² | - |
| 1778165093 | 13.89° C | 60% | 1017 hPa | 0 mm | - | 40 W/m² | - |
| 1778164790 | 13.89° C | 60% | 1016.9 hPa | 0 mm | - | 36 W/m² | - |
| 1778164488 | 13.89° C | 61% | 1016.8 hPa | 0 mm | - | 46 W/m² | - |
| 1778164184 | 13.33° C | 61% | 1016.8 hPa | 1.27 mm | - | 111 W/m² | - |
| 1778163880 | 13.33° C | 61% | 1016.8 hPa | 1.27 mm | - | 43 W/m² | - |
* Rain latest hour (hover to see other rain measurements)
** Current wind speed in m/s (hover to see current wind gust speed)